Location: Chuathbaluk
(61.5726°N, 159.2454°W)
Time: 15:16:53
(UTC+00:00)

ITAMSAT 1 - Pass Details

Date: 24 January 2021
Orbit: 784 x 796 km, 98.9° (Epoch: 01 March)

Event Time Altitude Azimuth Distance (km) Brightness Sun altitude
Rises 06:21:12 0° 234° (SW) 3,277 11.5 -27.7°
Reaches altitude 10° 06:26:12 10° 277° (W) 2,354 11.1 -28.2°
Maximum altitude 06:26:52 10° 284° (WNW) 2,338 11.1 -28.3°
Drops below altitude 10° 06:27:33 10° 292° (WNW) 2,355 11.1 -28.4°
Sets 06:32:35 0° 335° (NNW) 3,291 11.4 -29.0°
